When you browse on this site, cookies collect data to enhance your experience and personalize the content and advertising you see.
Visit our Privacy Policy to learn more. By continuing to use the site, you agree to this use of cookies and data.
  • în România
  • Lista ţărilor
  • Pe 7 zile
  • Temperatura apei
  • Meteo pe hartă
  • Widget-uri
  • user-avatar
    Intrare

    Meteo pe oră la Craiova

    Astăzi, 5 Iunie, Vineri

    Timp Temperatura Precipitaţii Vânt Presiune Umiditate
    00:00 +18°C° 0 mm 1 m/s 746 mmHg 70%
    01:00 +18°C° 0 mm 1 m/s 746 mmHg 71%
    02:00 +16°C° 0 mm 1 m/s 746 mmHg 71%
    03:00 +16°C° 0 mm 1 m/s 745 mmHg 72%
    04:00 +16°C° 0 mm 1 m/s 745 mmHg 73%
    05:00 +16°C° 0 mm 1 m/s 745 mmHg 73%
    06:00 +17°C° 0 mm 2 m/s 745 mmHg 71%
    07:00 +19°C° 0 mm 2 m/s 746 mmHg 69%
    08:00 +20°C° 0 mm 3 m/s 746 mmHg 68%
    09:00 +23°C° 0 mm 2 m/s 746 mmHg 62%
    10:00 +25°C° 0 mm 2 m/s 746 mmHg 57%
    11:00 +26°C° 0 mm 2 m/s 746 mmHg 51%
    12:00 +27°C° 0 mm 2 m/s 745 mmHg 47%
    13:00 +28°C° 0 mm 2 m/s 745 mmHg 44%
    14:00 +29°C° 0 mm 2 m/s 745 mmHg 40%
    15:00 +29°C° 0 mm 2 m/s 745 mmHg 41%
    16:00 +29°C° 0 mm 2 m/s 745 mmHg 43%
    17:00 +29°C° 0 mm 2 m/s 745 mmHg 44%
    18:00 +27°C° 0 mm 2 m/s 745 mmHg 50%
    19:00 +26°C° 0 mm 2 m/s 745 mmHg 55%
    20:00 +24°C° 0 mm 2 m/s 745 mmHg 61%
    21:00 +23°C° 0 mm 2 m/s 745 mmHg 65%
    22:00 +21°C° 0 mm 2 m/s 746 mmHg 68%
    23:00 +20°C° 0 mm 2 m/s 746 mmHg 72%

    Mâine, 6 Iunie, Sâmbătă

    Timp Temperatura Precipitaţii Vânt Presiune Umiditate
    00:00 +20°C° 0 mm 2 m/s 746 mmHg 72%
    01:00 +19°C° 0 mm 3 m/s 746 mmHg 72%
    02:00 +19°C° 0 mm 3 m/s 746 mmHg 71%
    03:00 +19°C° 0 mm 3 m/s 746 mmHg 75%
    04:00 +18°C° 0 mm 2 m/s 746 mmHg 79%
    05:00 +17°C° 0 mm 2 m/s 746 mmHg 83%
    06:00 +19°C° 0 mm 2 m/s 746 mmHg 79%
    07:00 +20°C° 0 mm 3 m/s 746 mmHg 75%
    08:00 +22°C° 0 mm 4 m/s 746 mmHg 70%
    09:00 +23°C° 0 mm 4 m/s 746 mmHg 65%
    10:00 +26°C° 0 mm 4 m/s 746 mmHg 61%
    11:00 +27°C° 0 mm 5 m/s 746 mmHg 56%
    12:00 +27°C° 0 mm 5 m/s 746 mmHg 55%
    13:00 +28°C° 0 mm 5 m/s 746 mmHg 54%
    14:00 +28°C° 0 mm 5 m/s 746 mmHg 53%
    15:00 +28°C° 0 mm 5 m/s 745 mmHg 53%
    16:00 +28°C° 0 mm 5 m/s 745 mmHg 53%
    17:00 +29°C° 0 mm 5 m/s 745 mmHg 53%
    18:00 +27°C° 0 mm 4 m/s 745 mmHg 57%
    19:00 +25°C° 0 mm 4 m/s 745 mmHg 61%
    20:00 +22°C° 0 mm 4 m/s 745 mmHg 65%
    21:00 +21°C° 0 mm 4 m/s 745 mmHg 66%
    22:00 +20°C° 0 mm 4 m/s 746 mmHg 67%
    23:00 +19°C° 0 mm 4 m/s 746 mmHg 68%

    Poimâine, 7 Iunie, Duminică

    Timp Temperatura Precipitaţii Vânt Presiune Umiditate
    00:00 +19°C° 0 mm 4 m/s 746 mmHg 70%
    01:00 +18°C° 0 mm 4 m/s 746 mmHg 72%
    02:00 +18°C° 0 mm 4 m/s 746 mmHg 74%
    03:00 +17°C° 0 mm 4 m/s 746 mmHg 76%
    04:00 +17°C° 0 mm 4 m/s 746 mmHg 78%
    05:00 +17°C° 0 mm 4 m/s 746 mmHg 80%
    06:00 +18°C° 0 mm 4 m/s 746 mmHg 78%
    07:00 +19°C° 0 mm 5 m/s 747 mmHg 76%
    08:00 +20°C° 0 mm 5 m/s 747 mmHg 73%
    09:00 +22°C° 0 mm 5 m/s 747 mmHg 69%
    10:00 +23°C° 0 mm 5 m/s 747 mmHg 66%
    11:00 +26°C° 0 mm 5 m/s 747 mmHg 62%
    12:00 +26°C° 0.1 mm 5 m/s 747 mmHg 60%
    13:00 +26°C° 0.1 mm 5 m/s 747 mmHg 58%
    14:00 +27°C° 0.1 mm 6 m/s 747 mmHg 56%
    15:00 +27°C° 0.5 mm 5 m/s 746 mmHg 56%
    16:00 +26°C° 0.5 mm 5 m/s 746 mmHg 57%
    17:00 +26°C° 0.5 mm 5 m/s 746 mmHg 57%
    18:00 +25°C° 0.1 mm 4 m/s 746 mmHg 61%
    19:00 +22°C° 0.1 mm 3 m/s 746 mmHg 65%
    20:00 +22°C° 0.1 mm 1 m/s 746 mmHg 69%
    21:00 +20°C° 0.1 mm 2 m/s 747 mmHg 70%
    22:00 +19°C° 0.1 mm 2 m/s 747 mmHg 71%
    23:00 +18°C° 0.1 mm 2 m/s 747 mmHg 72%

    8 Iunie, Luni

    Timp Temperatura Precipitaţii Vânt Presiune Umiditate
    00:00 +17°C° 0 mm 2 m/s 747 mmHg 73%
    01:00 +17°C° 0 mm 2 m/s 747 mmHg 73%
    02:00 +16°C° 0 mm 1 m/s 747 mmHg 74%
    03:00 +16°C° 0 mm 1 m/s 747 mmHg 75%
    04:00 +16°C° 0 mm 1 m/s 747 mmHg 76%
    05:00 +14°C° 0 mm 0 m/s 746 mmHg 77%
    06:00 +16°C° 0 mm 0 m/s 747 mmHg 73%
    07:00 +18°C° 0 mm 0 m/s 747 mmHg 68%
    08:00 +22°C° 0 mm 1 m/s 747 mmHg 64%
    09:00 +23°C° 0 mm 1 m/s 747 mmHg 60%
    10:00 +25°C° 0 mm 1 m/s 747 mmHg 55%
    11:00 +26°C° 0 mm 1 m/s 747 mmHg 51%
    12:00 +27°C° 0 mm 1 m/s 746 mmHg 49%
    13:00 +28°C° 0 mm 2 m/s 746 mmHg 46%
    14:00 +28°C° 0 mm 2 m/s 746 mmHg 44%
    15:00 +28°C° 0 mm 2 m/s 746 mmHg 44%
    16:00 +28°C° 0 mm 2 m/s 746 mmHg 44%
    17:00 +28°C° 0 mm 2 m/s 745 mmHg 44%
    18:00 +27°C° 0 mm 2 m/s 746 mmHg 50%
    19:00 +25°C° 0 mm 2 m/s 746 mmHg 56%
    20:00 +23°C° 0 mm 2 m/s 746 mmHg 62%
    21:00 +22°C° 0.1 mm 1 m/s 746 mmHg 65%
    22:00 +22°C° 0.1 mm 1 m/s 746 mmHg 68%
    23:00 +21°C° 0.1 mm 1 m/s 747 mmHg 71%

    9 Iunie, Marţi

    Timp Temperatura Precipitaţii Vânt Presiune Umiditate
    00:00 +20°C° 0.1 mm 1 m/s 747 mmHg 74%
    01:00 +20°C° 0.1 mm 1 m/s 746 mmHg 77%
    02:00 +19°C° 0.1 mm 1 m/s 746 mmHg 80%
    03:00 +19°C° 0.1 mm 1 m/s 747 mmHg 81%
    04:00 +19°C° 0.1 mm 1 m/s 747 mmHg 82%
    05:00 +17°C° 0.1 mm 0 m/s 747 mmHg 83%
    06:00 +20°C° 0.1 mm 1 m/s 747 mmHg 80%
    07:00 +22°C° 0.1 mm 1 m/s 747 mmHg 76%
    08:00 +23°C° 0.1 mm 1 m/s 747 mmHg 72%
    09:00 +24°C° 0 mm 1 m/s 747 mmHg 67%
    10:00 +26°C° 0 mm 2 m/s 747 mmHg 61%
    11:00 +27°C° 0 mm 2 m/s 747 mmHg 55%
    12:00 +28°C° 0 mm 2 m/s 747 mmHg 52%
    13:00 +29°C° 0 mm 2 m/s 747 mmHg 48%
    14:00 +30°C° 0 mm 1 m/s 747 mmHg 45%
    15:00 +30°C° 0 mm 2 m/s 747 mmHg 45%
    16:00 +30°C° 0 mm 2 m/s 747 mmHg 45%
    17:00 +30°C° 0 mm 2 m/s 746 mmHg 45%
    18:00 +28°C° 0 mm 1 m/s 747 mmHg 52%
    19:00 +26°C° 0 mm 1 m/s 747 mmHg 58%
    20:00 +24°C° 0 mm 1 m/s 747 mmHg 64%
    21:00 +23°C° 0.2 mm 1 m/s 747 mmHg 68%
    22:00 +22°C° 0.2 mm 1 m/s 747 mmHg 73%
    23:00 +21°C° 0.2 mm 1 m/s 747 mmHg 77%

    10 Iunie, Miercuri

    Timp Temperatura Precipitaţii Vânt Presiune Umiditate
    00:00 +21°C° 0.8 mm 1 m/s 747 mmHg 80%
    01:00 +20°C° 0.8 mm 1 m/s 747 mmHg 82%
    02:00 +20°C° 0.8 mm 1 m/s 747 mmHg 85%
    03:00 +20°C° 0.4 mm 1 m/s 747 mmHg 86%
    04:00 +19°C° 0.4 mm 1 m/s 747 mmHg 88%
    05:00 +19°C° 0.4 mm 1 m/s 747 mmHg 89%
    06:00 +20°C° 0 mm 1 m/s 747 mmHg 85%
    07:00 +22°C° 0 mm 1 m/s 747 mmHg 80%
    08:00 +23°C° 0 mm 1 m/s 747 mmHg 76%
    09:00 +25°C° 0 mm 1 m/s 747 mmHg 70%
    10:00 +26°C° 0 mm 1 m/s 747 mmHg 65%
    11:00 +28°C° 0 mm 1 m/s 747 mmHg 59%
    12:00 +29°C° 0.4 mm 1 m/s 747 mmHg 55%
    13:00 +29°C° 0.4 mm 1 m/s 747 mmHg 52%
    14:00 +30°C° 0.4 mm 2 m/s 746 mmHg 48%
    15:00 +30°C° 0.1 mm 2 m/s 746 mmHg 52%
    16:00 +29°C° 0.1 mm 2 m/s 747 mmHg 55%
    17:00 +28°C° 0.1 mm 2 m/s 747 mmHg 58%
    18:00 +26°C° 1.8 mm 2 m/s 747 mmHg 68%
    19:00 +24°C° 1.8 mm 3 m/s 747 mmHg 77%
    20:00 +21°C° 1.8 mm 4 m/s 747 mmHg 87%
    21:00 +20°C° 1.3 mm 3 m/s 747 mmHg 88%
    22:00 +20°C° 1.3 mm 2 m/s 748 mmHg 90%
    23:00 +20°C° 1.3 mm 2 m/s 748 mmHg 91%
    Arată mai mult